星链-5907 (STARLINK-5907 )

导读 | 豆包AI

STARLINK-5907是美国SpaceX公司“星链”星座中的一颗卫星,于2023年3月24日发射入轨。作为星链低轨互联网星座的组成部分,它运行于近地轨道,为全球用户提供高速宽带互联网接入服务,覆盖网络基础设施匮乏地区,同时还可服务于海事、航空等移动场景,并具备潜在军事应用价值,是星链大规模组网部署中的一环。

Basic Information
目录编号:
56021
目录名称:
STARLINK-5907
国际标识:
2023-042AM
轨道中心:
EARTH
卫星名称:
星链-5907
卫星全名:
星链-5907 (STARLINK-5907 )
卫星状态:
在轨 (已飞行1133 天)
发射日期:
2023-03-24 UTC
国别 :
美国 (US)
星等 :
--
Orbit Information
数据来源 国际轨道数据 AOE轨道数据
星历时间 2026-04-30T08:26:15+0800
10小时前
查看轨道信息
2026-04-29T13:00:00+0800
1天前
查看轨道信息
半长轴 6861.196km 6861.2km
偏心率 0.000008 0.0000012
轨道倾角 43.001° 43.002°
近地点辐角 320.743° 153.541°
升交点赤经 115.505° 120.082°
平近点角 39.342° 67.473°
近地点 483.004km 483.054km
远地点 483.114km 483.072km
周期 94.267分钟 94.267分钟
每日圈数 15.27577 15.275756
Detailed Information
固有亮度:
5
最大亮度:
2.5
卫星平台:
Starlink v1.5
覆盖范围:
全球
运营商:
太空探索技术公司
运营商所在国:
美国
制造商(研发单位):
太空探索技术公司
制造商所在国:
美国
使用方式:
暂无
Satellite Introduction
星链(Starlink)计划是由太空探索技术公司(SpaceX)提出的一个巨型低轨卫星互联网星座项目,计划在2019年至2024年间在太空搭建由约1.2万颗卫星组成的“星链”网络,其中1584颗将部署在地球上空550千米处的近地轨道,并从2020年开始工作。该卫星仍在工作。
2D Orbit Map
3D Orbit Map
Orbit Altitude Analysis Chart
Orbit Inclination Analysis Chart
Orbit Comprehensive Analysis Chart
View Comprehensive Chart